This is the latest recevied weather packets stored in our database for station/object KA7KDX-4. If no packets are shown the sender has not sent any weather packets the latest 10 day(s).
| Time | Temp. | Humidity | Pressure | Rain* | Wind** | Luminosity | Snow |
|---|---|---|---|---|---|---|---|
| 1777153205 | 12.78° C | 34% | 1005.8 hPa | 0 mm | - | - | - |
| 1777152905 | 12.78° C | 34% | 1005.9 hPa | 0 mm | - | - | - |
| 1777152606 | 12.78° C | 33% | 1006 hPa | 0 mm | - | - | - |
| 1777152306 | 12.78° C | 33% | 1006 hPa | 0 mm | - | - | - |
| 1777152007 | 12.78° C | 33% | 1006 hPa | 0 mm | - | - | - |
| 1777151706 | 12.22° C | 34% | 1006.3 hPa | 0 mm | - | - | - |
| 1777151406 | 12.22° C | 34% | 1006.3 hPa | 0 mm | - | - | - |
| 1777151105 | 12.78° C | 33% | 1006.3 hPa | 0 mm | - | - | - |
| 1777150805 | 12.78° C | 34% | 1006.4 hPa | 0 mm | - | - | - |
| 1777150505 | 12.22° C | 33% | 1006.5 hPa | 0 mm | - | - | - |
| 1777150205 | 12.22° C | 33% | 1006.6 hPa | 0 mm | - | - | - |
| 1777149905 | 12.22° C | 33% | 1006.8 hPa | 0 mm | - | - | - |
| 1777149606 | 11.67° C | 33% | 1006.8 hPa | 0 mm | - | - | - |
| 1777149306 | 12.22° C | 32% | 1006.9 hPa | 0 mm | - | - | - |
| 1777149006 | 12.22° C | 32% | 1006.9 hPa | 0 mm | - | - | - |
| 1777148706 | 11.67° C | 33% | 1006.9 hPa | 0 mm | - | - | - |
| 1777148406 | 11.67° C | 33% | 1007.1 hPa | 0 mm | - | - | - |
| 1777148106 | 11.67° C | 35% | 1007.3 hPa | 0 mm | - | - | - |
| 1777147805 | 11.67° C | 35% | 1007.3 hPa | 0 mm | - | - | - |
| 1777147505 | 11.67° C | 34% | 1007.5 hPa | 0 mm | - | - | - |
| 1777147205 | 11.67° C | 35% | 1007.4 hPa | 0 mm | - | - | - |
| 1777146905 | 11.67° C | 34% | 1007.4 hPa | 0 mm | - | - | - |
| 1777146606 | 11.67° C | 34% | 1007.6 hPa | 0 mm | - | - | - |
| 1777146306 | 11.67° C | 34% | 1007.6 hPa | 0.25 mm | - | - | - |
| 1777146006 | 11.11° C | 34% | 1007.9 hPa | 0.51 mm | - | - | - |
* Rain latest hour (hover to see other rain measurements)
** Current wind speed in m/s (hover to see current wind gust speed)